DELTA 1 DEB, 10716

Orbit data source: Space-Track

DELTA 1 DEB, 10716 is space debris in SSO originally from a launch on Thu, 29 Jul 1976 UTC launched from the Air Force Western Test Range (AFWTR). Debris objects in space refer to the collection of defunct objects orbiting the Earth. Examples of debris include non-operational satellites, rocket bodies, and fragments generated from explosions, collisions, or faulty payload assembly.

Loading next visibility...
Identifier
10716, 1976-077AM
Orbit
SSO
Country
Flag of USUS
Related business
Manufacturer
Unknown
Mission
Spacecraft
Bus & Motor
Unknown
Mass
Unknown
Launch date (UTC)
1976-07-29 (49 years ago)
Launch vehicle
Unknown
Launch site
Air Force Western Test Range (AFWTR)
Object type
Payload
Rocket body
Debris
Shape & HBR
Unknown shape, 0.1 m
Radar Cross Section
Small (<0.1 m²)

Expand to show TLE details & history
Last TLE update: 1 day ago

TLE from 1 day ago
0 DELTA 1 DEB
1 10716U 76077AM  25290.44065417  .00003124  00000-0  13258-1 0  9991
2 10716 102.7459  96.9136 0129504 218.2929 200.3578 12.81206042245690
Epoch: 2025-10-17T10:34Z
TLE epoch observation values (Epoch: 2025-10-17T10:34:32.520Z)
Latitude
56.03315°
Longitude
-107.42737°
Altitude
1,439.565 km
Speed
7.103 km/s
True Right ascension
05h 09m 34s
True Declination
55° 53' 15"
Sunlit
Object was in daylight at epoch
Visualization orbit readout
Latitude
Unknown
Longitude
Unknown
Altitude
Unknown
Speed
Unknown
Apparent Right ascension
Unknown
Apparent Declination
Unknown
Sunlit
N/A
Visualization observer readout
Local Sidereal Time
08:12:42
Azimuth
Unknown
Elevation
Unknown
Doppler factor
Unknown
Orbital elements
Apogee altitude
1,434.07 km
Perigee altitude
1,234.314 km
Semi-major axis
7,712.329 km
Eccentricity
0.01295
Inclination
102.7459°
RAAN
96.9136°
Arg. of periapsis
218.2929°
True anomaly
199.84927°
Mean anomaly
200.3578°
Eccentric anomaly
200.10277°
Mean motion
3.20453 °/min
Orbital period
112.34 mins
BSTAR
0.013258
Loading maneuver chart data...
Computing Atmospheric mass density...
Loading historical data...
Loading historical data...
Loading historical data...
Loading historical data...
Loading historical data...
Loading historical data...
Loading historical data...

Documentation

Showing up to 5 results
|